This is the latest recevied weather packets stored in our database for station/object EA1RCG-11. If no packets are shown the sender has not sent any weather packets the latest 10 day(s).
| Time | Temp. | Humidity | Pressure | Rain* | Wind** | Luminosity | Snow |
|---|---|---|---|---|---|---|---|
| 1778216698 | 12.22° C | 63% | 972.5 hPa | - | - | - | - |
| 1778214898 | 12.22° C | 64% | 972.4 hPa | - | - | - | - |
| 1778213098 | 12.22° C | 64% | 972.4 hPa | - | - | - | - |
| 1778211298 | 12.78° C | 63% | 972.6 hPa | - | - | - | - |
| 1778209498 | 12.78° C | 63% | 972.9 hPa | - | - | - | - |
| 1778207698 | 13.33° C | 63% | 973.2 hPa | - | - | - | - |
| 1778205898 | 12.78° C | 63% | 973.2 hPa | - | - | - | - |
| 1778204098 | 13.33° C | 63% | 973.5 hPa | - | - | - | - |
| 1778202298 | 13.33° C | 63% | 973.7 hPa | - | - | - | - |
| 1778200497 | 12.78° C | 63% | 974.1 hPa | - | - | - | - |
| 1778198697 | 13.89° C | 63% | 974.4 hPa | - | - | - | - |
| 1778196897 | 13.89° C | 63% | 974.5 hPa | - | - | - | - |
| 1778195097 | 14.44° C | 62% | 974.6 hPa | - | - | - | - |
| 1778193297 | 15° C | 62% | 974.8 hPa | - | - | - | - |
| 1778191497 | 14.44° C | 62% | 975 hPa | - | - | - | - |
| 1778189697 | 15° C | 62% | 975 hPa | - | - | - | - |
| 1778187897 | 15° C | 61% | 975 hPa | - | - | - | - |
| 1778186097 | 15.56° C | 61% | 974.7 hPa | - | - | - | - |
| 1778184296 | 16.11° C | 61% | 974.5 hPa | - | - | - | - |
| 1778182496 | 16.11° C | 61% | 974.3 hPa | - | - | - | - |
| 1778180696 | 17.22° C | 60% | 974 hPa | - | - | - | - |
| 1778178896 | 17.78° C | 59% | 973.7 hPa | - | - | - | - |
| 1778177096 | 18.33° C | 58% | 973.5 hPa | - | - | - | - |
| 1778175296 | 19.44° C | 57% | 973.6 hPa | - | - | - | - |
| 1778173496 | 19.44° C | 57% | 973.5 hPa | - | - | - | - |
* Rain since midnight (hover to see other rain measurements)
** Current wind speed in m/s (hover to see current wind gust speed)